Simultaneous Nadir Overpasses (SNOs) Predictions

Prediction of SNOs between AQUA and METOP-A Satellite Orbit:

Table of predicted SNOs for the next 14.0 days since TLE Epoch: 12/9/2016
Index Date (AQUA) Time (AQUA) Lat,Lon (AQUA) SZA (AQUA ) Date (METOP-A) Time (METOP-A) Lat,Lon (METOP-A) SZA (METOP-A ) Distance(km) Time Diff (sec)
1 12/11/2016 02:00:52 73.80, 143.95 96.77 12/11/2016 02:00:00 73.80, 143.99 96.77 1.44 52
2 12/11/2016 02:50:19 -73.86, -48.53 83.18 12/11/2016 02:50:41 -73.86, -48.54 83.18 0.26 22
3 12/13/2016 21:35:05 73.77,-149.54 96.94 12/13/2016 21:34:23 73.78,-149.64 96.96 3.26 42
4 12/13/2016 22:24:33 -73.87, 17.87 82.96 12/13/2016 22:25:04 -73.85, 17.84 82.99 3.44 31
5 12/16/2016 17:09:20 73.80, -83.17 97.11 12/16/2016 17:08:46 73.82, -83.15 97.13 1.97 34
6 12/16/2016 17:58:48 -73.90, 84.25 82.78 12/16/2016 17:59:27 -73.88, 84.33 82.81 3.50 39
7 12/19/2016 12:43:34 73.79, -16.71 97.18 12/19/2016 12:43:10 73.81, -16.77 97.20 2.51 24
8 12/19/2016 13:33:02 -73.89, 150.71 82.72 12/19/2016 13:33:51 -73.87, 150.71 82.74 2.26 49
9 12/22/2016 07:28:12 -73.38,-117.01 83.24 12/22/2016 07:27:03 -73.34,-118.79 83.22 57.15 69
10 12/22/2016 08:17:48 73.85, 49.62 97.26 12/22/2016 08:17:32 73.85, 49.73 97.26 3.29 16
11 12/22/2016 09:07:15 -73.89,-142.84 82.70 12/22/2016 09:08:13 -73.91,-142.79 82.68 2.56 58




NCC Satellite Simultaneous Nadir Overpasses (SNOs) Prediction Service
